Weather in Livingstone

Zambia     17°50′51″S   25°51′19″E
temp.,
°C
wind,
m/s
gust,
m/s
humid.,
%
clouds,
%
prec.,
mm/h
press.,
hPa
HPBL,
m
27 october, wed
wed2723:00+25ese25467 0.0 1014102
02:00+23ese28545 0.0 1013191
05:00+21ese396425 0.0 1014280
08:00+27e593960 0.0 10161022
11:00+34e562537 0.0 10133063
14:00+33e462565 0.2 10102640
17:00+35e771956 0.0 10073330
20:00+29ese5113448 0.0 1011586
28 october, thu
thu2823:00+28e41235100 0.0 1013848
02:00+26e51244100 0.0 10121107
05:00+24e49525 0.0 1014691
08:00+27e68435 0.0 10161470
11:00+32ene56276 0.0 10132372
14:00+36ese53198 0.0 10093483
17:00+34ese652082 0.0 10072822
20:00+29e4928100 0.0 1010510
29 october, fri
fri2923:00+27e273227 0.0 1011223
02:00+24ese37414 0.0 1010212
05:00+21ese39507 0.0 1012282
08:00+27ene573564 0.0 1013972
11:00+34ene322159 0.0 10102436
14:00+37se331760 0.0 10063732
17:00+34se352289 0.0 10051054
20:00+30s3632100 0.3 1008312
30 october, sat
sat3023:00+28ese253594 0.0 1008150
02:00+24se1143100 0.0 100812
05:00+23se22475 0.0 100917
08:00+29ese35305 0.0 1010617
11:00+36se332025 0.0 10083046
14:00+36s532073 0.1 10043118
17:00+33ssw3524100 0.1 10041109
20:00+25nne374726 0.4 1007157
31 october, sun
sun3123:00+24e22505 0.0 100816
02:00+24ene11485 0.0 100611
05:00+23se01485 0.0 100811
08:00+31ese242973 0.0 1009606
11:00+38ese33175 0.0 10073859
14:00+39s6514100 0.0 10034144
17:00+33nne462177 0.1 1004216
20:00+27nne22335 0.1 100725